Location: Newark
(56.0692°N, 115.8617°E)
Time: 11:41:20
(UTC+00:00)

Vanguard 2 Rocket - Pass Details

Date: 28 May 2020
Orbit: 556 x 3325 km, 32.9° (Epoch: 14 July)

Event Time Altitude Azimuth Distance (km) Brightness Sun altitude
Rises 14:29:19 0° 263° (W) 6,416 11.5 -9.2°
Reaches altitude 10° 14:37:50 10° 238° (WSW) 5,924 10.9 -9.7°
Maximum altitude 14:43:32 12° 220° (SW) 5,955 10.8 -10.0°
Drops below altitude 10° 14:49:32 10° 202° (SSW) 6,263 10.7 -10.3°
Enters shadow 14:55:32 - 187° (S) 6,786 10.8 -10.6°
Sets 14:59:34 0° 178° (S) 7,221 - -10.7°
